Weather reports worldwide

Advertisment
S. Maria Di Leuca, Italy (16360): temperature & dewpoint: 10.07.2018 18:00:00 - 16.07.2018 18:00:00 (CEST)S. Maria Di Leuca, Italy (16360): wind speed: 10.07.2018 18:00:00 - 16.07.2018 18:00:00 (CEST)S. Maria Di Leuca, Italy (16360): wind direction: 10.07.2018 18:00:00 - 16.07.2018 18:00:00 (CEST)S. Maria Di Leuca, Italy (16360): reduced air pressure: 10.07.2018 18:00:00 - 16.07.2018 18:00:00 (CEST)S. Maria Di Leuca, Italy (16360): visibility: 10.07.2018 18:00:00 - 16.07.2018 18:00:00 (CEST)S. Maria Di Leuca, Italy (16360): sunshine duration: 10.07.2018 18:00:00 - 16.07.2018 18:00:00 (CEST)
Date & Time tt [°C] td [°C] ff [km/h] ff [kn] dd ppp [hPa] vv [km] sd [min]
16.07.2018 18:00:00 26,6 17,7 9 5 SW 1012,5 20 60
16.07.2018 17:00:00 26,6 18,2 9 5 E 1012,7 20 60
16.07.2018 16:00:00 26,4 20,0 11 6 SSW 1012,7 10 60
16.07.2018 15:00:00 26,4 20,0 9 5 SW 1012,8 20 60
16.07.2018 14:00:00 26,8 17,0 11 6 SW 1012,9 20 60
16.07.2018 13:00:00 27,0 17,2 9 5 SW 1012,8 20 60
16.07.2018 12:00:00 26,4 19,3 9 5 SW 1013,0 20 60
16.07.2018 11:00:00 26,4 20,7 16 9 W 1012,7 20 60
16.07.2018 10:00:00 27,0 15,1 9 5 NE 1012,0 20 60
16.07.2018 09:00:00 25,6 17,3 11 6 ENE 1011,9 20 60
16.07.2018 08:00:00 25,0 18,0 5 3 NNE 1012,0 20 -
16.07.2018 07:00:00 24,4 17,6 13 7 NNE 1011,9 20 18
16.07.2018 06:00:00 24,0 17,0 13 7 NNE 1011,9 20 0
16.07.2018 05:00:00 24,6 15,5 9 5 NNW 1011,9 20 -
16.07.2018 04:00:00 24,8 12,7 8 4 NNW 1011,9 20 -
16.07.2018 03:00:00 25,0 15,4 9 5 N 1011,9 20 -
16.07.2018 02:00:00 25,4 14,2 9 5 N 1011,8 20 -
16.07.2018 01:00:00 26,2 13,0 9 5 WNW 1011,8 20 -
16.07.2018 00:00:00 26,2 13,4 9 5 W 1011,8 20 -
15.07.2018 23:00:00 26,2 15,6 9 5 NW 1011,8 20 -
15.07.2018 22:00:00 26,6 14,7 8 4 NW 1011,4 20 -
15.07.2018 21:00:00 26,8 16,7 4 2 NNW 1011,0 20 0
15.07.2018 20:00:00 27,8 14,4 4 2 W 1011,0 20 60
15.07.2018 19:00:00 27,8 15,1 4 2 W 1011,2 20 60
15.07.2018 18:00:00 27,6 16,9 8 4 W 1011,7 20 60
15.07.2018 17:00:00 27,4 17,6 11 6 W 1011,9 20 60
15.07.2018 16:00:00 27,4 15,1 15 8 W 1011,9 20 60
15.07.2018 15:00:00 26,8 17,9 15 8 W 1012,2 20 60
15.07.2018 14:00:00 27,0 17,2 13 7 WSW 1012,4 20 60
15.07.2018 13:00:00 27,0 16,6 8 4 WSW 1012,4 20 60
15.07.2018 12:00:00 26,8 21,1 9 5 WSW 1012,4 20 60
15.07.2018 11:00:00 27,8 11,8 11 6 NNE 1012,3 20 60
15.07.2018 10:00:00 26,4 14,2 9 5 NNE 1012,4 20 60
15.07.2018 09:00:00 25,2 15,8 16 9 NNE 1012,4 20 60
15.07.2018 08:00:00 24,6 18,1 16 9 NNE 1012,4 20 60
15.07.2018 07:00:00 23,2 19,4 16 9 NNE 1012,5 20 6
15.07.2018 06:00:00 22,2 19,2 21 11 NNE 1012,5 15 0
15.07.2018 05:00:00 22,2 19,5 11 6 N 1012,8 12 -
15.07.2018 04:00:00 22,6 20,0 15 8 N 1013,1 12 -
15.07.2018 03:00:00 22,4 19,2 5 3 NNW 1013,1 12 -
15.07.2018 02:00:00 22,8 20,1 9 5 NNW 1013,1 12 -
15.07.2018 01:00:00 23,0 20,9 18 10 N 1013,1 12 -
15.07.2018 00:00:00 23,0 22,0 18 10 NNE 1013,1 15 -
14.07.2018 23:00:00 24,0 21,7 22 12 NNE 1013,0 10 -
14.07.2018 22:00:00 25,4 18,8 22 12 NNE 1013,0 15 -
14.07.2018 21:00:00 27,2 15,2 18 10 N 1012,9 15 0
14.07.2018 20:00:00 28,4 12,7 16 9 N 1012,9 20 60
14.07.2018 19:00:00 30,0 14,1 18 10 NNE 1012,8 20 60
14.07.2018 18:00:00 31,0 15,0 21 11 N 1012,8 20 60
14.07.2018 17:00:00 31,0 14,6 24 13 NNE 1013,2 20 60
14.07.2018 16:00:00 30,4 16,0 21 11 N 1013,4 20 60
14.07.2018 15:00:00 29,2 15,0 21 11 NNE 1013,7 20 60
14.07.2018 14:00:00 29,0 15,5 18 10 N 1014,2 20 60
14.07.2018 13:00:00 29,0 16,9 16 9 N 1014,6 20 60
14.07.2018 12:00:00 29,0 17,5 24 13 N 1014,9 20 60
14.07.2018 11:00:00 29,0 18,8 22 12 N 1014,9 20 60
14.07.2018 10:00:00 27,6 18,6 16 9 N 1014,9 20 -
14.07.2018 09:00:00 25,8 21,7 22 12 N 1014,9 20 60
14.07.2018 08:00:00 24,6 22,1 21 11 N 1014,9 15 12
14.07.2018 07:00:00 24,2 21,1 21 11 N 1014,3 15 0
14.07.2018 06:00:00 24,0 18,7 18 10 N 1014,3 15 0
14.07.2018 05:00:00 25,4 15,1 15 8 N 1014,7 10 -
14.07.2018 04:00:00 25,2 13,7 16 9 N 1014,7 10 -
14.07.2018 03:00:00 25,2 18,9 13 7 N 1014,9 10 -
14.07.2018 02:00:00 25,2 19,8 11 6 NNE 1014,9 10 -
14.07.2018 01:00:00 24,2 18,4 13 7 NNE 1014,9 10 -
14.07.2018 00:00:00 25,2 19,1 13 7 N 1014,9 10 -
13.07.2018 23:00:00 26,2 19,8 9 5 NNW 1014,9 10 -
13.07.2018 22:00:00 26,0 18,4 8 4 NW 1014,7 10 -
13.07.2018 21:00:00 27,6 18,6 11 6 NNW 1013,8 10 24
13.07.2018 20:00:00 28,2 16,8 13 7 N 1013,8 15 60
13.07.2018 19:00:00 28,6 20,1 15 8 NNE 1013,4 15 60
13.07.2018 18:00:00 28,6 21,6 8 4 WSW 1013,6 15 60
13.07.2018 17:00:00 28,6 21,9 8 4 SW 1013,8 10 60
13.07.2018 16:00:00 28,6 22,4 8 4 WSW 1014,1 15 60
13.07.2018 15:00:00 28,4 23,1 8 4 S 1014,6 15 60
13.07.2018 14:00:00 28,6 23,1 8 4 ENE 1014,8 15 60
13.07.2018 13:00:00 28,0 21,3 8 4 SW 1015,1 15 60
13.07.2018 12:00:00 28,0 21,1 9 5 WSW 1015,1 15 60
13.07.2018 11:00:00 27,8 22,3 8 4 SW 1015,0 10 60
13.07.2018 10:00:00 28,4 19,6 9 5 N 1014,7 15 60
13.07.2018 09:00:00 27,0 18,8 8 4 NNE 1014,4 15 60
13.07.2018 08:00:00 24,6 18,3 5 3 NNE 1014,3 15 60
13.07.2018 07:00:00 23,2 19,8 13 7 NNE 1013,9 15 24
13.07.2018 06:00:00 22,4 18,8 11 6 N 1014,4 10 0
13.07.2018 05:00:00 22,6 18,0 15 8 N 1014,5 10 -
13.07.2018 04:00:00 23,8 18,0 9 5 N 1014,6 10 -
13.07.2018 03:00:00 23,8 18,0 9 5 N 1014,6 10 -
13.07.2018 02:00:00 23,8 18,0 8 4 NNW 1014,7 10 -
13.07.2018 01:00:00 23,8 15,6 11 6 NW 1014,5 10 -
13.07.2018 00:00:00 23,6 15,4 13 7 WNW 1014,4 10 -
12.07.2018 23:00:00 23,6 15,4 13 7 WNW 1014,3 10 -
12.07.2018 22:00:00 24,0 21,3 11 6 WNW 1014,0 10 -
12.07.2018 21:00:00 24,0 21,3 11 6 WNW 1013,8 12 -
12.07.2018 20:00:00 24,2 21,7 13 7 W 1013,5 20 60
12.07.2018 19:00:00 24,6 21,3 15 8 W 1013,0 20 60
12.07.2018 18:00:00 24,8 21,9 13 7 WSW 1013,0 20 60
12.07.2018 17:00:00 25,2 19,8 13 7 WSW 1013,0 20 60
12.07.2018 16:00:00 25,2 19,4 11 6 WSW 1013,4 20 60
12.07.2018 15:00:00 24,8 19,9 13 7 WSW 1014,0 20 60
12.07.2018 14:00:00 24,8 20,9 15 8 WSW 1014,0 20 60
12.07.2018 13:00:00 25,0 18,7 9 5 SW 1014,0 20 60
12.07.2018 12:00:00 25,0 21,5 9 5 SW 1014,0 20 60
12.07.2018 11:00:00 24,2 22,1 8 4 S 1013,8 15 60
12.07.2018 10:00:00 24,0 21,7 5 3 SSW 1013,8 15 54
12.07.2018 09:00:00 23,2 20,2 4 2 SW 1013,5 15 18
12.07.2018 08:00:00 22,6 18,4 5 3 WSW 1013,0 15 0
12.07.2018 07:00:00 22,8 18,5 5 3 SW 1013,0 15 0
12.07.2018 06:00:00 22,4 18,2 5 3 SSW 1013,0 15 0
12.07.2018 05:00:00 22,4 18,2 8 4 NNW 1013,0 12 -
12.07.2018 04:00:00 22,4 18,2 5 3 NNW 1013,0 12 -
12.07.2018 03:00:00 22,4 18,4 8 4 NNW 1013,0 12 -
12.07.2018 02:00:00 23,2 20,9 5 3 SW 1013,0 12 -
12.07.2018 01:00:00 23,2 20,5 4 2 SSW 1013,0 12 -
12.07.2018 00:00:00 23,2 20,5 5 3 W 1013,0 12 -
11.07.2018 23:00:00 23,2 20,5 9 5 WSW 1013,0 10 -
11.07.2018 22:00:00 23,2 20,7 9 5 WSW 1012,9 12 -
11.07.2018 21:00:00 23,4 21,7 8 4 WSW 1012,9 12 -
11.07.2018 20:00:00 23,6 21,3 9 5 WSW 1012,6 15 18
11.07.2018 19:00:00 23,6 21,9 11 6 SSW 1012,5 20 60
11.07.2018 18:00:00 23,2 19,5 9 5 ESE 1013,0 20 60
11.07.2018 17:00:00 23,2 19,6 9 5 SSW 1013,1 20 60
11.07.2018 16:00:00 23,2 19,5 11 6 SSE 1013,1 20 60
11.07.2018 15:00:00 23,2 19,6 11 6 SSE 1013,2 20 60
11.07.2018 14:00:00 23,2 18,5 11 6 SW 1013,2 20 60
11.07.2018 13:00:00 22,8 19,8 9 5 S 1013,5 20 60
11.07.2018 12:00:00 22,8 20,1 11 6 SW 1013,4 20 60
11.07.2018 11:00:00 23,0 20,5 9 5 ESE 1013,1 20 60
11.07.2018 10:00:00 22,6 20,0 9 5 SE 1013,0 20 60
11.07.2018 09:00:00 22,4 19,6 9 5 E 1013,0 20 60
11.07.2018 08:00:00 22,2 19,6 8 4 ESE 1012,8 20 60
11.07.2018 07:00:00 21,8 19,4 8 4 E 1012,5 20 24
11.07.2018 06:00:00 21,8 19,4 9 5 ENE 1012,2 20 0
11.07.2018 05:00:00 22,0 19,9 11 6 ENE 1012,5 15 -
11.07.2018 04:00:00 22,0 19,9 9 5 E 1013,0 15 -
11.07.2018 03:00:00 22,0 20,3 9 5 ENE 1013,0 15 -
11.07.2018 02:00:00 22,2 20,5 9 5 NE 1013,2 15 -
11.07.2018 01:00:00 23,0 21,6 4 2 WSW 1013,0 15 -
11.07.2018 00:00:00 23,0 21,3 5 3 SW 1013,0 15 -
10.07.2018 23:00:00 23,0 21,3 5 3 SSW 1013,0 10 -
10.07.2018 22:00:00 23,0 20,9 4 2 S 1013,0 15 -
10.07.2018 21:00:00 23,2 20,0 0 0 N 1012,9 20 -
10.07.2018 20:00:00 23,2 20,5 4 2 WSW 1012,4 20 0
10.07.2018 19:00:00 23,6 20,0 8 4 SW 1012,2 20 60
10.07.2018 18:00:00 24,2 17,7 9 5 ESE 1012,2 20 60

tt = temperature
td = dewpoint
ff = wind speed
dd = wind direction
ppp = reduced air pressure
vv = visibility
sd = sunshine duration

Next stations